Regional Weather Roundup
Issued by NWS

Home | Current Version | Previous Version | Graphics & Text | Print | Product List | Glossary Off
Versions: 1 2 3 4 5 6 7 8 9 10 11 12 13 14 15 16 17 18 19 20 21 22 23 24 25 26 27 28 29 30 31 32 33 34 35 36 37 38 39 40 41 42 43 44 45 46 47 48 49 50

000
ASUS43 KMKX 311300
RWRWI

WISCONSIN REGIONAL WEATHER ROUNDUP
NATIONAL WEATHER SERVICE MILWAUKEE/SULLIVAN WI
800 AM CDT MON AUG 31 2015

NOTE: "FAIR" INDICATES FEW OR NO CLOUDS BELOW 12,000 FEET WITH NO
SIGNIFICANT WEATHER AND/OR OBSTRUCTIONS TO VISIBILITY.

WIZ001-002-006>008-014>016-023>028-311400-
NORTHWEST WISCONSIN

CITY           SKY/WX    TMP DP  RH WIND       PRES   REMARKS
SUPERIOR ARPT  FOG       57  57 100 CALM      29.89S VSB 1/2
ASHLAND        SUNNY     65  64  97 S7        29.92S
HAYWARD        CLOUDY    66  63  90 S10       29.97R
SIREN          SUNNY     64  63  97 S3        29.94S FOG
CUMBERLAND     CLOUDY    63  63 100 S6        29.98R FOG
RICE LAKE      FOG       64  63  95 S5        29.99S VSB 1/2
CHETEK         FOG      N/A N/A N/A SE7       29.99S VSB 1/2
LADYSMITH      FOG       64  63  97 S6        30.01S VSB 3/4
EAU CLAIRE     NOT AVBL
MENOMONIE      FOG       65  64  99 SE3       29.99R VSB 1/2
NEW RICHMOND   CLOUDY    66  65  99 S7        29.97R FOG
OSCEOLA        CLOUDY    65  65 100 S7        29.97S FOG
$$

WIZ003>005-009-010-017-018-311400-
NORTH CENTRAL WISCONSIN

CITY           SKY/WX    TMP DP  RH WIND       PRES   REMARKS
MANITOWISH WTR CLOUDY    63  63 100 S9        30.00S
ARBOR VITAE    CLOUDY    64  63  94 SW6       30.01S
WOODRUFF       CLOUDY    64  63  94 SW6       30.01S
RHINELANDER    CLOUDY    65  62  90 SW7       30.02F FOG
EAGLE RIVER    CLOUDY    64  62  96 SW9       30.01S
LAND O LAKES   CLOUDY    64  62  94 SW5       30.01S
PHILLIPS       CLOUDY    63  63 100 SW5       30.00S FOG
TOMAHAWK       FOG       63  62  97 CALM      30.03S VSB 1/2
MEDFORD        CLOUDY    62  62 100 S5        30.02S FOG
MERRILL        CLOUDY    63  63 100 SW3       30.04R FOG
$$

WIZ029-030-035-036-043>047-311400-
CENTRAL WISCONSIN

CITY           SKY/WX    TMP DP  RH WIND       PRES   REMARKS
WAUSAU         CLOUDY    62  62 100 S5        30.02R FOG
MOSINEE        FOG       61  61 100 S5        30.04S VSB 1/4
MARSHFIELD     FOG       62  59  90 S5        30.03S VSB 1/4
STEVENS POINT  CLOUDY    60  60 100 SW3       30.04S FOG
WAUPACA        PTSUNNY   63  62  96 CALM      30.04R FOG
WAUTOMA        NOT AVBL
WISC RAPIDS    CLOUDY    63  61  93 SW5       30.05S FOG
CAMP DOUGLAS   NOT AVBL
$$

WIZ011>013-019>022-031-037>040-048>050-311400-
NORTHEAST WISCONSIN

CITY           SKY/WX    TMP DP  RH WIND       PRES   REMARKS
ANTIGO         FOG       62  62 100 W6        30.04R VSB 1/4
SHAWANO        FOG       64  63  95 SW3       30.02S VSB 1/2
OCONTO         CLOUDY    62  62 100 W5        30.01R
STURGEON BAY   SUNNY     64  63  94 W6        30.03S
GREEN BAY      FOG       64  63  96 SW7       30.03R VSB 1/4
MANITOWOC      NOT AVBL
APPLETON       CLOUDY    63  63 100 S7        30.03R FOG
CLINTONVILLE   FOG       61  61 100 SW7       30.03S VSB 1/4
OSHKOSH        CLOUDY    63  61  93 S6        30.04S FOG
$$

WIZ032>034-041-042-053>061-311400-
SOUTHWEST WISCONSIN

CITY           SKY/WX    TMP DP  RH WIND       PRES   REMARKS
LA CROSSE      CLOUDY    66  64  93 S7        30.01S FOG
SPARTA         CLOUDY    60  59  95 CALM      30.03S
VIROQUA          N/A     63  63 100 CALM      30.05R VSB 1/4
BOSCOBEL       FOG       61  60  97 CALM      30.04S VSB<1/4
PRAIRIE DU CHI CLOUDY    60  58  95 CALM      30.04R FOG
PLATTEVILLE    SUNNY     62  62 100 SE5       30.05S
$$

WIZ056-057-062-063-064-067-068-311400-
SOUTH CENTRAL WISCONSIN

CITY           SKY/WX    TMP DP  RH WIND       PRES   REMARKS
REEDSBURG      CLOUDY    62  62 100 CALM      30.05R FOG
BARABOO/DELLS  CLOUDY    64  62  94 CALM      30.05S FOG
LONE ROCK      NOT AVBL
MINERAL POINT  FOG       61  59  94 SE5       30.06S VSB 1/4
MADISON        PTSUNNY   63  61  93 SE3       30.06S
MIDDLETON      CLOUDY    63  63 100 CALM      30.06F
WATERTOWN      FOG       57  57 100 CALM      30.06S VSB 1/4
MONROE         SUNNY     61  61 100 SW7       30.07R FOG
JANESVILLE     FOG       61  61 100 CALM      30.07R VSB 1/8
$$

WIZ051-052-058>065-066-070>072-311400-
SOUTHEAST WISCONSIN

CITY           SKY/WX    TMP DP  RH WIND       PRES   REMARKS
MILWAUKEE      FOG       62  62 100 SW3       30.07R VSB 1/2
WAUKESHA       FOG       59  59 100 CALM      30.08R VSB 1/4
MILWAUKEE/TIMM SUNNY     61  59  94 CALM      30.07R FOG
RACINE         SUNNY     63  61  93 W3        30.08S FOG
BURLINGTON     FOG       57  57  99 CALM      30.07S VSB 1/4
KENOSHA        CLOUDY    63  62  97 CALM      30.07S FOG
FOND DU LAC    CLOUDY    63  62  97 SW3       30.05S FOG
SHEBOYGAN      SUNNY     62  62 100 S3        30.05R FOG
WEST BEND      FOG       57  55  94 CALM      30.06R VSB 1/4
JUNEAU         FOG       58  58  99 CALM      30.07S VSB<1/4
$$

LSZ147-162-311400-
LAKE SUPERIOR

STATION/POSITION TIME  TEMP    WIND        PRES    WAVE
                       AIR SEA DIR/SP/G            HT/PER
                 (UTC) (F)     (DEG/KT/KT) (MB)    (FT/S)
W MID LAKE BUOY  1150   59 54  210/ 10/ 10 1012.5R   1/ 3
DEVILS ISLAND    1200   64     180/  7/ 10 1012.2R
PORT WING        1200   66     180/  4/ 10 1012.2
SAXON HARBOR     1200   65      CALM  /  5 1012.9R
$$

LMZ867-665-643>646-311400-
LAKE MICHIGAN

STATION/POSITION TIME  TEMP    WIND        PRES    WAVE
                       AIR SEA DIR/SP/G            HT/PER
                 (UTC) (F)     (DEG/KT/KT) (MB)    (FT/S)
CHAMBERS ISLAND  1200   62     210/  7/ 11 1015.6R
S GREEN BAY BUOY 1200   64 63  220/ 10/ 14 1017.5R
N MID LAKE BUOY  1150   64 65  220/ 10/ 12 1015.3R   2/ 4
NORTHPORT PIER   1200   66      CALM  /  3 1015.6R
SHEBOYGAN LAKESH 1200   59     190/  6/  6 1017.5R
PORT WASHINGTON  1200   58     240/  1/  3 1018.3R
ATWATER BUOY     1200   57 49  200/  6/  6 1019.1R
MILWAUKEE LAKESH 1210   62     210/  5/  5   N/A
S MID LAKE BUOY  1150   68 68  220/  4/  4 1017.7R
KENOSHA   LAKESH 1200   63     250/  3/  5 1017.9R
$$

TC  - TEMPERATURE IN CELSIUS
VSB - VISIBILITY IN STATUTE MILES
WCI - WIND CHILL INDEX
HX  - HEAT INDEX



USA.gov is the U.S. government's official web portal to all federal, state and local government web resources and services.